Regional Weather Roundup
Issued by NWS

Home | Current Version | Previous Version | Text Only | Print | Product List | Glossary On
Versions: 1 2 3 4 5 6 7 8 9 10 11 12 13 14 15 16 17 18 19 20 21 22 23 24 25 26 27 28 29 30 31 32 33 34 35 36 37 38 39 40 41 42 43 44 45 46 47 48 49 50
000
ASUS43 KOAX 271010
RWRNE

WEATHER ROUNDUP FOR NEBRASKA
NATIONAL WEATHER SERVICE OMAHA NE
500 AM CDT WED AUG 27 2014

NOTES: SATELLITE DATA IS BEING USED TO AUGMENT CLOUD COVER ABOVE
       12000 FEET.
       "FAIR" INDICATES FEW OR NO CLOUDS BELOW 12,000 FEET WITH NO
       SIGNIFICANT WEATHER AND/OR OBSTRUCTIONS TO VISIBILITY.

  * THESE STATIONS DO NOT REPORT WEATHER SUCH AS RAIN...SNOW OR FOG.

NEZ001>004-019>022-054>056-271100-
NEBRASKA PANHANDLE

CITY           SKY/WX    TMP DP  RH WIND       PRES   REMARKS
SCOTTSBLUFF    MOCLDY    62  61  96 S3        30.13F
ALLIANCE       MOCLDY    61  60  97 SE5       30.13F
CHADRON        CLOUDY    62  58  86 N3        30.13F
KIMBALL        CLOUDY    62  61  97 S3        30.15S FOG
SIDNEY         MOCLDY    62  56  80 E3        30.14F
$$

NEZ057>060-069>072-079>082-271100-
SOUTHWEST NEBRASKA

CITY           SKY/WX    TMP DP  RH WIND       PRES   REMARKS
NORTH PLATTE   LGT RAIN  65  64  97 SE6       30.10F
IMPERIAL       CLOUDY    66  63  90 CALM      30.13R
LEXINGTON      CLOUDY    69  67  95 N9        30.10F
MCCOOK         CLOUDY    67  65  93 NE6       30.10F
OGALLALA       CLOUDY    65  62  91 E6        30.13R
$$

NEZ005>010-023>029-035>040-094-271100-
NORTH CENTRAL NEBRASKA

CITY           SKY/WX    TMP DP  RH WIND       PRES   REMARKS
VALENTINE      CLOUDY    68  66  93 SE7       30.13R
AINSWORTH      CLOUDY    66  66 100 CALM      30.11F FOG
BROKEN BOW     CLOUDY    69  68  96 S7        30.10F FOG
O`NEILL        CLOUDY    65  65  98 E3        30.12F
ORD            CLOUDY    67  65  93 S7        30.11S
THEDFORD       CLOUDY    68  67  98 NE6       30.14F THUNDER
$$

NEZ041-046>049-061>064-073>077-083>087-271100-
SOUTH CENTRAL NEBRASKA

CITY           SKY/WX    TMP DP  RH WIND       PRES   REMARKS
GRAND ISLAND   CLOUDY    69  67  93 SW8       30.13R
AURORA         CLOUDY    67  67 100 SE6       30.10R
HASTINGS       TSTM      69  66  90 SW3       30.14R
HEBRON         CLOUDY    68  65  90 CALM      30.08S
HOLDREGE       CLOUDY    67  65  95 CALM      30.13S
KEARNEY *      CLOUDY    66  64  94 W3        30.12F THUNDER
YORK           CLOUDY    66 N/A N/A SE6       30.10S
$$

NEZ011>018-030>034-042>045-271100-
NORTHEAST NEBRASKA

CITY           SKY/WX    TMP DP  RH WIND       PRES   REMARKS
NORFOLK        CLOUDY    66  63  90 E5        30.11F
ALBION         CLOUDY    66  63  90 E5        30.11S
BLAIR          PTCLDY    67  65  91 NE7       30.09F
FREMONT        PTCLDY    68  65  91 E5        30.09F
TEKAMAH        CLOUDY    66  64  93 N5        30.11F
WAYNE          CLOUDY    64  62  94 NE3       30.13F
$$

NEZ050>053-065>068-078-088>093-271100-
SOUTHEAST NEBRASKA

CITY           SKY/WX    TMP DP  RH WIND       PRES   REMARKS
LINCOLN        CLOUDY    69  66  90 NE5       30.08F
OMAHA EPPLEY   PTCLDY    67  64  90 N7        30.08F
BEATRICE       MOCLDY    69  68  98 CALM      30.07F
FALLS CITY     CLOUDY    72  68  87 NE10      30.08R
NEBRASKA CITY  CLOUDY    68  68 100 E7        30.08R
PLATTSMOUTH    MOCLDY    68  65  92 CALM      30.07F
$$

NEZ044-045-051>053-067-271100-
OMAHA AREA

CITY           SKY/WX    TMP DP  RH WIND       PRES   REMARKS
OMAHA EPPLEY   PTCLDY    67  64  90 N7        30.08F
BLAIR          PTCLDY    67  65  91 NE7       30.09F
FREMONT        PTCLDY    68  65  91 E5        30.09F
MILLARD        MOCLDY    69  65  88 CALM      30.07F
OFFUTT AFB     MOCLDY    68  67  99 NE3       30.06F
PLATTSMOUTH    MOCLDY    68  65  92 CALM      30.07F
WAHOO          FAIR      65  63  91 CALM      30.08F
$$


USA.gov is the U.S. government's official web portal to all federal, state and local government web resources and services.